EW8073 Weather Reports


time (UTC)temp
C
wind
direction
speed
KPH
gust
KPH
rain 1hr
cm
rain 24hr
cm
rain mn
cm
humidity
%
barometer
mb
20260831231057 30 152 0.0 0.0 0.00 0.00 0.00 31 1017.1
20260831230550 30 152 0.0 0.0 0.00 0.00 0.00 31 1017.2
20260831230043 30 161 0.0 1.6 0.00 0.00 0.00 32 1017.2
20260831225538 30 159 0.0 1.6 0.00 0.00 0.00 32 1017.3
20260831225031 30 123 0.0 1.6 0.00 0.00 0.00 31 1017.4
20260831224525 30 144 0.0 1.6 0.00 0.00 0.00 30 1017.3
20260831224020 29 134 0.0 0.0 0.00 0.00 0.00 32 1017.4
20260831223513 30 135 0.0 0.0 0.00 0.00 0.00 33 1017.4
20260831223007 30 134 0.0 0.0 0.00 0.00 0.00 35 1017.5
20260831222505 30 132 0.0 0.0 0.00 0.03 0.00 32 1017.5
20260831222005 29 146 0.0 1.6 0.00 0.03 0.00 34 1017.5
20260831221501 29 146 0.0 1.6 0.00 0.03 0.00 30 1017.5
20260831221001 29 154 0.0 1.6 0.00 0.03 0.00 32 1017.6
20260831215959 29 76 0.0 1.6 0.00 0.03 0.00 33 1017.6
20260831214956 30 103 0.0 0.0 0.00 0.03 0.00 31 1017.8
20260831214455 30 101 0.0 0.0 0.00 0.03 0.00 32 1017.9
20260831213954 29 342 0.0 0.0 0.00 0.03 0.00 33 1017.8
20260831213454 28 342 0.0 0.0 0.00 0.03 0.00 34 1017.8
20260831212455 28 307 0.0 0.0 0.00 0.03 0.00 36 1017.9
20260831211950 28 257 0.0 3.2 0.00 0.03 0.00 34 1018.0
20260831211451 29 211 0.0 3.2 0.00 0.03 0.00 38 1018.1
20260831210951 28 170 0.0 1.6 0.00 0.03 0.00 40 1018.2
20260831210450 28 170 0.0 1.6 0.00 0.03 0.00 37 1018.3
20260831205951 28 31 0.0 0.0 0.00 0.03 0.00 39 1018.3
20260831204450 27 138 0.0 0.0 0.00 0.03 0.00 38 1018.7
20260831203951 27 138 0.0 0.0 0.00 0.05 0.00 38 1018.7
20260831203450 27 138 0.0 0.0 0.00 0.05 0.00 39 1018.8
20260831202950 27 139 0.0 0.0 0.00 0.05 0.00 38 1018.9
20260831202451 27 238 0.0 0.0 0.00 0.05 0.00 37 1019.0
20260831201950 27 238 0.0 0.0 0.00 0.05 0.00 38 1019.0
20260831200951 27 259 0.0 0.0 0.00 0.05 0.00 38 1019.2
20260831200450 27 259 0.0 0.0 0.00 0.05 0.00 38 1019.3
20260831195447 27 240 0.0 0.0 0.00 0.05 0.00 38 1019.3
20260831194941 27 244 0.0 0.0 0.00 0.05 0.00 39 1019.3
20260831194434 27 244 0.0 0.0 0.00 0.05 0.00 38 1019.4
20260831193927 27 244 0.0 0.0 0.00 0.05 0.00 36 1019.4
20260831193422 27 244 0.0 0.0 0.00 0.05 0.00 37 1019.5
20260831192916 27 244 0.0 0.0 0.00 0.05 0.00 40 1019.6
20260831192410 27 244 0.0 0.0 0.00 0.05 0.00 40 1019.6
20260831191904 27 244 0.0 0.0 0.00 0.05 0.00 39 1019.7
20260831190852 27 245 0.0 0.0 0.00 0.05 0.00 41 1020.0
20260831190346 27 245 0.0 0.0 0.00 0.05 0.00 40 1020.0
20260831185840 26 245 0.0 0.0 0.00 0.05 0.00 40 1020.1
20260831184825 26 245 0.0 0.0 0.00 0.05 0.00 39 1020.1
20260831184320 26 245 0.0 0.0 0.00 0.05 0.00 41 1020.2
20260831183813 26 245 0.0 0.0 0.00 0.05 0.00 41 1020.2
20260831183307 26 245 0.0 0.0 0.00 0.05 0.00 40 1020.2
20260831182802 26 244 0.0 0.0 0.00 0.05 0.00 40 1020.2
20260831181749 26 244 0.0 0.0 0.00 0.05 0.00 40 1020.3
20260831181244 26 244 0.0 0.0 0.00 0.05 0.00 40 1020.3
20260831180739 26 244 0.0 0.0 0.00 0.05 0.00 40 1020.4
20260831180232 26 244 0.0 0.0 0.00 0.05 0.00 40 1020.4
20260831175726 26 243 0.0 0.0 0.00 0.05 0.00 43 1020.4
20260831175219 26 243 0.0 0.0 0.00 0.05 0.00 41 1020.4
20260831174713 26 243 0.0 0.0 0.00 0.05 0.00 43 1020.4
20260831174208 26 243 0.0 0.0 0.00 0.05 0.00 42 1020.6
20260831173701 26 243 0.0 0.0 0.00 0.05 0.00 43 1020.6
20260831173155 26 243 0.0 0.0 0.00 0.05 0.00 43 1020.6
20260831172652 25 243 0.0 0.0 0.00 0.05 0.00 47 1020.7
20260831172143 25 243 0.0 0.0 0.00 0.05 0.00 46 1020.7
20260831171132 25 243 0.0 0.0 0.00 0.05 0.00 45 1020.7
20260831170119 25 243 0.0 0.0 0.00 0.05 0.00 45 1020.8
20260831165614 25 243 0.0 0.0 0.00 0.05 0.00 45 1020.7
20260831165109 25 243 0.0 0.0 0.00 0.05 0.00 47 1020.7
20260831164603 25 244 0.0 0.0 0.00 0.05 0.00 47 1020.7
20260831164056 25 244 0.0 0.0 0.00 0.05 0.00 48 1020.8
20260831163549 25 244 0.0 0.0 0.00 0.05 0.00 47 1020.7
20260831163044 24 243 0.0 0.0 0.00 0.05 0.00 49 1020.7
20260831162538 24 243 0.0 0.0 0.00 0.05 0.00 48 1020.6
20260831162033 24 243 0.0 0.0 0.00 0.05 0.00 50 1020.6
20260831161527 23 244 0.0 0.0 0.00 0.05 0.00 49 1020.6
20260831161021 23 244 0.0 0.0 0.00 0.05 0.00 48 1020.6
20260831160515 23 244 0.0 0.0 0.00 0.05 0.00 49 1020.6
20260831154957 23 248 0.0 0.0 0.00 0.05 0.00 52 1020.3
20260831154450 23 248 0.0 0.0 0.00 0.05 0.00 53 1020.2
20260831153943 22 248 0.0 0.0 0.00 0.05 0.00 52 1020.2
20260831153438 22 248 0.0 0.0 0.00 0.05 0.00 52 1020.2
20260831152932 22 248 0.0 0.0 0.00 0.05 0.00 51 1020.2
20260831152427 22 249 0.0 0.0 0.00 0.05 0.00 53 1020.1
20260831151920 22 248 0.0 0.0 0.00 0.05 0.00 55 1020.2
20260831151413 21 249 0.0 1.6 0.00 0.05 0.00 55 1020.1
20260831150908 21 249 0.0 1.6 0.00 0.05 0.00 54 1020.3
20260831150402 21 252 0.0 1.6 0.00 0.05 0.00 57 1020.2
20260831145856 21 252 0.0 1.6 0.00 0.05 0.00 57 1020.2
20260831145350 21 245 0.0 3.2 0.00 0.05 0.00 57 1020.2
20260831144844 21 255 0.0 3.2 0.00 0.05 0.00 58 1020.3
20260831143833 20 248 0.0 0.0 0.00 0.05 0.00 62 1020.2
20260831143327 20 247 0.0 0.0 0.00 0.05 0.00 63 1020.2
20260831142820 20 249 0.0 0.0 0.00 0.05 0.00 64 1020.1
20260831142314 19 248 0.0 1.6 0.00 0.05 0.00 65 1020.0
20260831141808 19 248 0.0 1.6 0.00 0.05 0.00 67 1020.0
20260831141301 18 248 0.0 1.6 0.00 0.05 0.00 69 1020.0
20260831140755 18 241 0.0 1.6 0.00 0.05 0.00 72 1020.0
20260831140250 18 229 0.0 0.0 0.00 0.05 0.00 73 1020.0
20260831135744 17 229 0.0 0.0 0.00 0.05 0.00 74 1020.0
20260831135245 17 229 0.0 0.0 0.00 0.05 0.00 74 1019.9
20260831134239 16 229 0.0 0.0 0.00 0.05 0.00 74 1019.7
20260831133737 16 229 0.0 0.0 0.00 0.05 0.00 75 1019.6
20260831132733 16 229 0.0 0.0 0.00 0.05 0.00 75 1019.5
20260831132232 16 229 0.0 0.0 0.00 0.05 0.00 75 1019.5
20260831131729 16 229 0.0 0.0 0.00 0.05 0.00 74 1019.4
20260831131228 16 229 0.0 0.0 0.00 0.05 0.00 74 1019.3
20260831130223 16 229 0.0 0.0 0.00 0.05 0.00 73 1019.3
20260831125219 16 229 0.0 0.0 0.00 0.05 0.00 72 1019.3
20260831124721 16 229 0.0 0.0 0.00 0.05 0.00 72 1019.2
20260831124217 16 229 0.0 0.0 0.00 0.05 0.00 72 1019.0
20260831123715 16 229 0.0 0.0 0.00 0.05 0.00 71 1018.9
20260831123214 16 229 0.0 0.0 0.00 0.05 0.00 71 1018.9
20260831122713 16 229 0.0 0.0 0.00 0.05 0.00 71 1018.8
20260831122215 16 229 0.0 0.0 0.00 0.05 0.00 70 1018.8
20260831121711 16 229 0.0 0.0 0.00 0.05 0.00 70 1018.7
20260831120209 16 229 0.0 0.0 0.00 0.05 0.00 70 1018.6
20260831114709 16 229 0.0 0.0 0.00 0.05 0.00 70 1018.6
20260831114210 16 229 0.0 0.0 0.00 0.05 0.00 70 1018.6
20260831113711 16 229 0.0 0.0 0.00 0.05 0.00 70 1018.6
20260831113209 16 229 0.0 0.0 0.00 0.05 0.00 70 1018.5
20260831112706 16 229 0.0 0.0 0.00 0.05 0.00 70 1018.3
20260831112206 16 229 0.0 0.0 0.00 0.05 0.00 70 1018.3
20260831111706 16 229 0.0 0.0 0.00 0.05 0.00 70 1018.2
20260831111205 16 229 0.0 0.0 0.00 0.05 0.00 70 1018.1
20260831110706 16 229 0.0 0.0 0.00 0.05 0.00 70 1018.1
20260831110208 16 229 0.0 0.0 0.00 0.05 0.00 70 1018.2
20260831105708 16 229 0.0 0.0 0.00 0.05 0.00 70 1018.2
20260831105208 16 229 0.0 0.0 0.00 0.05 0.00 70 1018.1
20260831104708 16 229 0.0 0.0 0.00 0.05 0.00 70 1018.0
20260831104204 16 229 0.0 0.0 0.00 0.05 0.00 70 1018.0
20260831103704 16 229 0.0 0.0 0.00 0.05 0.00 70 1018.1
20260831103204 16 229 0.0 0.0 0.00 0.05 0.00 70 1018.1
20260831102702 16 229 0.0 0.0 0.00 0.05 0.00 70 1018.1
20260831102201 16 229 0.0 0.0 0.00 0.05 0.00 70 1018.1
20260831101701 16 229 0.0 0.0 0.00 0.05 0.00 70 1018.1
20260831101203 16 229 0.0 0.0 0.00 0.05 0.00 70 1018.2
20260831100701 16 229 0.0 0.0 0.00 0.05 0.00 70 1018.1
20260831100202 16 229 0.0 0.0 0.00 0.05 0.00 70 1018.1
20260831095702 17 229 0.0 0.0 0.00 0.05 0.00 70 1018.0
20260831095201 17 229 0.0 0.0 0.00 0.05 0.00 70 1017.9
20260831094701 17 229 0.0 0.0 0.00 0.05 0.00 70 1017.9
20260831094158 17 229 0.0 0.0 0.00 0.05 0.00 70 1017.8
20260831093659 17 229 0.0 0.0 0.00 0.05 0.00 70 1017.8
20260831093153 17 229 0.0 0.0 0.00 0.05 0.00 70 1017.9
20260831092645 17 229 0.0 0.0 0.00 0.05 0.00 70 1017.8
20260831092139 17 229 0.0 0.0 0.00 0.05 0.00 70 1017.8
20260831091634 17 229 0.0 0.0 0.00 0.05 0.00 70 1017.8
20260831091129 17 229 0.0 0.0 0.00 0.05 0.00 70 1017.6
20260831090621 17 229 0.0 0.0 0.00 0.05 0.00 69 1017.6
20260831085610 17 229 0.0 0.0 0.00 0.05 0.00 69 1017.8
20260831085103 17 229 0.0 0.0 0.00 0.05 0.00 69 1017.6
20260831084557 17 229 0.0 0.0 0.00 0.05 0.00 69 1017.8
20260831084054 17 229 0.0 0.0 0.00 0.05 0.00 69 1017.8
20260831083547 17 229 0.0 0.0 0.00 0.05 0.00 69 1017.8
20260831083039 17 229 0.0 0.0 0.00 0.05 0.00 69 1017.9
20260831082027 18 229 0.0 0.0 0.00 0.05 0.00 69 1018.0
20260831081523 18 229 0.0 0.0 0.00 0.05 0.00 69 1018.0
20260831080509 18 229 0.0 0.0 0.00 0.05 0.00 69 1017.9
20260831080004 18 229 0.0 0.0 0.00 0.05 0.00 69 1017.9
20260831075459 18 229 0.0 0.0 0.00 0.05 0.00 69 1018.1
20260831074951 18 229 0.0 0.0 0.00 0.05 0.00 69 1018.2
20260831074445 18 229 0.0 0.0 0.00 0.05 0.00 69 1018.1
20260831073940 18 229 0.0 0.0 0.00 0.05 0.00 69 1018.2
20260831072927 18 229 0.0 0.0 0.00 0.05 0.00 68 1018.2
20260831072423 18 229 0.0 0.0 0.00 0.05 0.00 68 1018.3
20260831071916 18 229 0.0 0.0 0.00 0.05 0.00 68 1018.3
20260831070904 18 229 0.0 0.0 0.00 0.05 0.00 67 1018.6
20260831070403 19 229 0.0 0.0 0.00 0.05 0.00 67 1018.6
20260831065905 19 229 0.0 0.0 0.00 0.05 0.00 67 1018.5
20260831065404 19 229 0.0 0.0 0.00 0.05 0.00 67 1018.3
20260831064903 19 229 0.0 0.0 0.00 0.05 0.00 67 1018.6
20260831064402 19 229 0.0 0.0 0.00 0.05 0.00 67 1018.6
20260831063900 19 229 0.0 0.0 0.00 0.05 0.00 67 1018.6
20260831063357 19 229 0.0 0.0 0.00 0.05 0.00 67 1018.7
20260831062855 19 229 0.0 0.0 0.00 0.05 0.00 67 1018.9
20260831062355 19 229 0.0 0.0 0.00 0.05 0.00 67 1018.8
20260831061855 19 229 0.0 0.0 0.00 0.05 0.00 68 1018.8
20260831060856 19 229 0.0 0.0 0.00 0.05 0.00 68 1018.9
20260831060354 19 229 0.0 0.0 0.00 0.05 0.00 68 1019.0
20260831055851 19 229 0.0 0.0 0.00 0.05 0.05 69 1019.0
20260831055351 19 229 0.0 0.0 0.00 0.05 0.05 69 1019.3
20260831054345 19 229 0.0 0.0 0.00 0.05 0.05 70 1019.2
20260831053839 19 229 0.0 0.0 0.00 0.05 0.05 70 1019.4
20260831053333 19 254 0.0 0.0 0.00 0.05 0.05 72 1019.5
20260831052827 19 253 0.0 0.0 0.00 0.05 0.05 72 1019.5
20260831051814 19 258 0.0 0.0 0.00 0.05 0.05 73 1019.7
20260831051311 19 223 0.0 0.0 0.00 0.05 0.05 72 1019.7
20260831050804 19 223 0.0 1.6 0.00 0.05 0.05 72 1020.0
20260831050259 18 223 0.0 1.6 0.00 0.05 0.05 72 1020.2
20260831045751 18 223 0.0 0.0 0.00 0.05 0.05 71 1020.0
20260831045245 18 223 0.0 0.0 0.00 0.05 0.05 71 1019.5
20260831044739 18 223 0.0 0.0 0.00 0.05 0.05 71 1019.3
20260831044233 18 223 0.0 0.0 0.00 0.05 0.05 70 1019.0
20260831043727 18 223 0.0 0.0 0.00 0.05 0.05 70 1018.9
20260831043222 19 223 0.0 0.0 0.00 0.05 0.05 70 1018.9
20260831042716 19 223 0.0 0.0 0.00 0.05 0.05 70 1018.8
20260831042209 19 223 0.0 0.0 0.00 0.05 0.05 69 1018.8
20260831041703 19 223 0.0 0.0 0.00 0.05 0.05 69 1018.9
20260831041157 19 223 0.0 0.0 0.00 0.05 0.05 69 1018.9
20260831040145 19 223 0.0 0.0 0.00 0.05 0.05 69 1018.8
20260831035640 19 223 0.0 0.0 0.00 0.05 0.05 68 1018.8
20260831035133 19 223 0.0 0.0 0.00 0.05 0.05 68 1018.8
20260831034627 19 223 0.0 0.0 0.00 0.05 0.05 68 1018.8
20260831034119 19 223 0.0 0.0 0.00 0.05 0.05 67 1018.8
20260831033613 19 223 0.0 0.0 0.00 0.05 0.05 67 1018.8
20260831033108 19 223 0.0 0.0 0.00 0.05 0.05 66 1018.8
20260831032602 19 223 0.0 0.0 0.00 0.05 0.05 66 1018.8
20260831032055 19 223 0.0 0.0 0.00 0.05 0.05 65 1018.7
20260831031549 19 223 0.0 0.0 0.00 0.05 0.05 65 1018.7
20260831031042 19 223 0.0 0.0 0.00 0.05 0.05 65 1018.6
20260831030537 20 223 0.0 0.0 0.00 0.05 0.05 64 1018.6
20260831030031 20 223 0.0 0.0 0.00 0.05 0.05 64 1018.6
20260831025526 20 223 0.0 0.0 0.00 0.05 0.05 63 1018.5
20260831025019 20 223 0.0 0.0 0.00 0.05 0.05 63 1018.3
20260831024513 20 223 0.0 0.0 0.00 0.05 0.05 63 1018.5
20260831024006 20 223 0.0 0.0 0.00 0.05 0.05 63 1018.5
20260831023500 20 223 0.0 0.0 0.00 0.05 0.05 62 1018.1
20260831021942 20 223 0.0 0.0 0.00 0.05 0.05 62 1017.9
20260831021437 21 223 0.0 0.0 0.00 0.05 0.05 62 1018.0
20260831020931 21 223 0.0 0.0 0.00 0.05 0.05 62 1017.9
20260831020425 21 223 0.0 0.0 0.00 0.05 0.05 61 1017.9
20260831015920 21 223 0.0 0.0 0.00 0.05 0.05 61 1017.9
20260831015412 21 223 0.0 0.0 0.00 0.05 0.05 61 1017.9
20260831014401 21 223 0.0 0.0 0.00 0.05 0.05 60 1017.8
20260831013350 22 223 0.0 0.0 0.00 0.05 0.05 59 1017.8
20260831012842 22 223 0.0 0.0 0.00 0.05 0.05 59 1017.9
20260831012337 22 223 0.0 0.0 0.00 0.05 0.05 58 1017.8
20260831011831 22 223 0.0 0.0 0.00 0.05 0.05 58 1017.6
20260831011325 22 223 0.0 0.0 0.00 0.05 0.05 57 1017.8
20260831005807 23 222 0.0 0.0 0.00 0.05 0.05 56 1017.6
20260831004250 23 222 0.0 0.0 0.00 0.05 0.05 56 1017.8
20260831003239 23 222 0.0 0.0 0.00 0.05 0.05 56 1017.8
20260831002733 23 222 0.0 3.2 0.00 0.05 0.05 56 1017.8
20260831002225 23 222 0.0 3.2 0.00 0.05 0.05 57 1018.0
20260831001718 23 222 0.0 3.2 0.00 0.05 0.05 59 1017.9
20260831001213 23 223 0.0 0.0 0.00 0.05 0.05 59 1017.9
20260831000201 22 225 0.0 0.0 0.00 0.05 0.05 62 1017.9
20260830235655 22 225 0.0 0.0 0.00 0.05 0.05 63 1017.9
20260830234139 21 226 0.0 0.0 0.00 0.05 0.05 64 1017.8
20260830233631 21 226 0.0 0.0 0.00 0.05 0.05 65 1017.8
20260830233125 21 226 0.0 0.0 0.00 0.05 0.05 66 1017.9
20260830232618 21 226 0.0 0.0 0.03 0.05 0.05 66 1017.8
20260830232113 21 226 0.0 0.0 0.03 0.05 0.05 65 1017.8
20260830231608 21 226 0.0 0.0 0.03 0.05 0.05 65 1017.8